Flag for U.S.A. Weather past 2 weeks in Breckenridge, Colorado, U.S.A.

Now
63 °F

Sunny.


Feels Like: 63 °F
Forecast: 47 / 76 °F
Wind: 20 mph from West

Location: Copper Mountain - Red Cliff Pass

Current Time: Jul 28, 2015 at 3:59:21 PM

Latest Report: Jul 28, 2015 at 3:14 PM


Visibility: 10 mi

Pressure: 30.64 "Hg (21.72 "Hg at 2921m altitude)

Humidity: 20%

Dew point: 21 °F

Location of BreckenridgeLocation

Historic Weather in Breckenridge — Graph

°F

Breckenridge temperature yesterday

Maximum temperature yesterday: 66 °F (at 3:34 PM)
Minimum temperature yesterday: 54 °F (at 12:14 AM)
Average temperature yesterday: 58 °F

Past Weeks' High & Low Weather Summary

 TemperatureHumidityPressure
High66 °F (Jul 27, 3:34 PM)87% (Jul 13, 11:15 PM)30.77 "Hg (Jul 13, 11:15 PM)
Low43 °F (Jul 15, 10:55 PM)21% (Jul 28, 12:14 PM)30.46 "Hg (Jul 21, 5:54 PM)
Average52 °F54%30.59 "Hg
* Reported Jul 13 2:15 PM — Jul 28 2:34 PM, Breckenridge, Weather by CustomWeather, © 2015

Note: Actual official high and low records may vary slightly from our data, if they occured in-between our weather recording intervals... More about our weather records

Advertising

Breckenridge weather history for previous 24 hours

 ConditionsComfort  
Time TempWeatherWind HumidityBarometerVisibility
2:34 PM
Tue, Jul 28
61 °FScattered clouds.13 mph22%30.64 "Hg10 mi
2:14 PM61 °FSunny.21 mph22%30.63 "Hg10 mi
1:54 PM61 °FSunny.20 mph23%30.63 "Hg10 mi
1:34 PM61 °FSunny.20 mph23%30.62 "Hg10 mi
1:14 PM61 °FSunny.21 mph25%30.63 "Hg10 mi
12:54 PM59 °FSunny.22 mph21%30.62 "Hg10 mi
12:34 PM59 °FSunny.18 mph23%30.62 "Hg10 mi
12:14 PM59 °FSunny.25 mph21%30.62 "Hg10 mi
11:54 AM59 °FSunny.24 mph25%30.61 "Hg10 mi
11:34 AM59 °FSunny.12 mph25%30.61 "Hg10 mi
11:14 AM59 °FSunny.28 mph25%30.60 "Hg10 mi
10:54 AM59 °FSunny.20 mph25%30.60 "Hg10 mi
10:34 AM59 °FSunny.23 mph23%30.60 "Hg10 mi
10:14 AM55 °FSunny.17 mph26%30.60 "Hg10 mi
9:54 AM55 °FSunny.17 mph24%30.60 "Hg10 mi
9:34 AM55 °FSunny.21 mph24%30.59 "Hg10 mi
9:14 AM54 °FSunny.14 mph26%30.60 "Hg10 mi
8:54 AM54 °FSunny.10 mph24%30.60 "Hg10 mi
8:34 AM54 °FSunny.10 mph24%30.59 "Hg10 mi
8:14 AM54 °FSunny.14 mph24%30.59 "Hg10 mi
7:54 AM54 °FSunny.9 mph26%30.57 "Hg10 mi
7:34 AM54 °FSunny.14 mph24%30.57 "Hg10 mi
7:14 AM54 °FSunny.14 mph26%30.57 "Hg10 mi
6:54 AM52 °FClear.10 mph26%30.56 "Hg10 mi
6:34 AM50 °FClear.13 mph30%30.56 "Hg10 mi
6:03 AM52 °FClear.13 mph24%30.54 "Hg10 mi
5:54 AM52 °FClear.12 mph24%30.55 "Hg10 mi
5:34 AM52 °FClear.12 mph26%30.54 "Hg10 mi
5:14 AM52 °FClear.9 mph26%30.54 "Hg10 mi
4:54 AM52 °FClear.9 mph26%30.54 "Hg10 mi
4:34 AM52 °FClear.10 mph26%30.53 "Hg10 mi
4:14 AM50 °FClear.12 mph30%30.53 "Hg10 mi
3:34 AM46 °FClear.14 mph40%30.52 "Hg10 mi
3:14 AM48 °FClear.9 mph37%30.53 "Hg10 mi
2:54 AM54 °FClear.13 mph28%30.53 "Hg10 mi
2:34 AM54 °FClear.6 mph28%30.53 "Hg10 mi
2:14 AM52 °FClear.10 mph32%30.52 "Hg10 mi
1:54 AM54 °FClear.14 mph28%30.53 "Hg10 mi
1:14 AM54 °FClear.13 mph28%30.54 "Hg10 mi
12:54 AM54 °FClear.14 mph28%30.54 "Hg10 mi
12:34 AM54 °FClear.21 mph28%30.53 "Hg10 mi
12:14 AM54 °FClear.13 mph28%30.54 "Hg10 mi
11:54 PM
Mon, Jul 27
54 °FClear.14 mph28%30.53 "Hg10 mi
11:34 PM54 °FClear.10 mph28%30.54 "Hg10 mi
11:14 PM54 °FClear.14 mph28%30.53 "Hg10 mi
10:54 PM55 °FClear.16 mph26%30.53 "Hg10 mi
10:34 PM55 °FClear.17 mph26%30.54 "Hg10 mi
10:14 PM55 °FClear.15 mph26%30.54 "Hg10 mi
9:54 PM55 °FClear.9 mph26%30.54 "Hg10 mi
9:34 PM55 °FClear.14 mph26%30.54 "Hg10 mi
9:14 PM55 °FSunny.16 mph26%30.53 "Hg10 mi
8:54 PM55 °FSunny.15 mph28%30.53 "Hg10 mi
8:34 PM55 °FSunny.15 mph28%30.52 "Hg10 mi
8:14 PM59 °FSunny.17 mph25%30.52 "Hg10 mi
7:54 PM59 °FScattered clouds.20 mph29%30.51 "Hg10 mi
7:34 PM59 °FScattered clouds.20 mph31%30.51 "Hg10 mi
7:14 PM61 °FScattered clouds.20 mph29%30.49 "Hg10 mi
6:54 PM61 °FBroken clouds.22 mph31%30.49 "Hg10 mi
6:34 PM61 °FScattered clouds.16 mph34%30.49 "Hg10 mi
6:14 PM59 °FScattered clouds.17 mph36%30.49 "Hg10 mi
5:54 PM64 °FScattered clouds.24 mph30%30.48 "Hg10 mi
5:34 PM64 °FScattered clouds.24 mph30%30.48 "Hg10 mi
5:14 PM64 °FBroken clouds.21 mph30%30.49 "Hg10 mi
4:54 PM61 °FBroken clouds.21 mph34%30.48 "Hg10 mi
4:34 PM64 °FBroken clouds.22 mph30%30.47 "Hg10 mi
3:34 PM66 °FScattered clouds.10 mph32%30.48 "Hg10 mi
3:14 PM64 °FScattered clouds.10 mph34%30.49 "Hg10 mi
Weather by CustomWeather, © 2015

See weather overviewHow to use our weather pages